Weather History for Caldwell, TX

Change the Weather History Date:

Tuesday, May 28, 2013

  Actual Average (KCLL) Record (KCLL)
Temperature  
Mean Temperature 80 °F 79 °F  
Max Temperature 89 °F 89 °F 98 °F (1958)
Min Temperature 71 °F 70 °F 53 °F (1961)
Degree Days  
Heating Degree Days 0 0  
Month to date heating degree days 0  
Since 1 July heating degree days 1606  
Cooling Degree Days 15 14  
Month to date cooling degree days 307  
Year to date cooling degree days 546  
Growing Degree Days 30 (Base 50)    
Moisture  
Dew Point 69 °F    
Average Humidity 73    
Maximum Humidity 100    
Minimum Humidity 46    
Precipitation  
Precipitation 0.00 in 0.15 in 3.93 in (1929)
Month to date precipitation 3.90  
Year to date precipitation 15.82  
Sea Level Pressure  
Sea Level Pressure 29.90 in    
Wind  
Wind Speed 14 mph (SSE)    
Max Wind Speed 21 mph    
Max Gust Speed 26 mph    
Visibility 10 miles    
Events      
T = Trace of Precipitation, MM = Missing Value Source: NWS Daily Summary

Daily Weather History Graph

Daily Weather History Graph

Search for Another Location

Airport:

Trip Planner

Search our weather history database for the weather conditions in past years. The results will help you decide how hot, cold, wet, or windy it might be!

Date:

Astronomy

May. 28, 2013 Rise Set
Actual Time 6:26 AM CDT 8:22 PM CDT
Civil Twilight 5:59 AM CDT 8:49 PM CDT
Nautical Twilight 5:26 AM CDT 9:22 PM CDT
Astronomical Twilight 4:51 AM CDT 9:57 PM CDT
Moon 11:56 PM CDT (5/28) 10:09 AM CDT (5/28)
Length of Visible Light 14h 50m
Length of Day
13h 56m
Waning Gibbous, 82% of the Moon is Illuminated
May 28
Waning Gibbous
May 31
Last Quarter
Jun 8
New
Jun 16
First Quarter
Jun 23
Full

Hourly Weather History & Observations

Time (CDT) Temp. Heat Index Dew Point Humidity Pressure Visibility Wind Dir Wind Speed Gust Speed Precip Events Conditions
12:15 AM 73.4 °F - 69.8 °F 88% 29.97 in 10.0 mi SSE 15.0 mph 19.6 mph N/A   Clear
12:35 AM 73.4 °F - 69.8 °F 88% 29.96 in 10.0 mi SSE 15.0 mph 19.6 mph N/A   Clear
12:55 AM 73.4 °F - 69.8 °F 88% 29.95 in 10.0 mi SSE 13.8 mph - N/A   Partly Cloudy
1:15 AM 73.4 °F - 69.8 °F 88% 29.94 in 10.0 mi SSE 12.7 mph 19.6 mph N/A   Scattered Clouds
1:35 AM 71.6 °F - 69.8 °F 94% 29.94 in 10.0 mi SSE 11.5 mph 21.9 mph N/A   Partly Cloudy
1:55 AM 71.6 °F - 69.8 °F 94% 29.93 in 10.0 mi SSE 12.7 mph 17.3 mph N/A   Scattered Clouds
2:15 AM 71.6 °F - 69.8 °F 94% 29.93 in 10.0 mi SSE 13.8 mph 17.3 mph N/A   Mostly Cloudy
2:35 AM 71.6 °F - 71.6 °F 100% 29.92 in 10.0 mi SSE 12.7 mph 18.4 mph N/A   Overcast
2:55 AM 71.6 °F - 71.6 °F 100% 29.92 in 10.0 mi SSE 13.8 mph - N/A   Overcast
3:15 AM 73.4 °F - 69.8 °F 88% 29.91 in 10.0 mi SSE 15.0 mph 21.9 mph N/A   Overcast
3:35 AM 73.4 °F - 69.8 °F 88% 29.91 in 10.0 mi SSE 12.7 mph 18.4 mph N/A   Overcast
3:55 AM 73.4 °F - 69.8 °F 88% 29.91 in 10.0 mi SSE 15.0 mph 21.9 mph N/A   Overcast
4:15 AM 73.4 °F - 69.8 °F 88% 29.90 in 10.0 mi SSE 13.8 mph 18.4 mph N/A   Overcast
4:35 AM 73.4 °F - 69.8 °F 88% 29.91 in 10.0 mi SSE 12.7 mph 18.4 mph N/A   Overcast
4:55 AM 73.4 °F - 69.8 °F 88% 29.91 in 10.0 mi SSE 15.0 mph 19.6 mph N/A   Overcast
5:15 AM 73.4 °F - 69.8 °F 88% 29.91 in 10.0 mi SSE 12.7 mph 19.6 mph N/A   Overcast
5:35 AM 73.4 °F - 69.8 °F 88% 29.91 in 10.0 mi SSE 15.0 mph 20.7 mph N/A   Overcast
5:55 AM 73.4 °F - 69.8 °F 88% 29.92 in 10.0 mi SSE 10.4 mph 17.3 mph N/A   Overcast
6:15 AM 73.4 °F - 69.8 °F 88% 29.93 in 10.0 mi SSE 9.2 mph - N/A   Overcast
6:35 AM 71.6 °F - 69.8 °F 94% 29.94 in 10.0 mi SSE 8.1 mph - N/A   Mostly Cloudy
6:55 AM 71.6 °F - 69.8 °F 94% 29.94 in 10.0 mi SE 9.2 mph - N/A   Mostly Cloudy
7:15 AM 73.4 °F - 69.8 °F 88% 29.94 in 10.0 mi SSE 9.2 mph - N/A   Overcast
7:35 AM 73.4 °F - 69.8 °F 88% 29.94 in 10.0 mi SE 12.7 mph - N/A   Overcast
7:55 AM 73.4 °F - 71.6 °F 94% 29.94 in 10.0 mi SE 11.5 mph - N/A   Mostly Cloudy
8:15 AM 75.2 °F - 71.6 °F 89% 29.94 in 10.0 mi SE 12.7 mph - N/A   Mostly Cloudy
8:35 AM 75.2 °F - 71.6 °F 89% 29.95 in 10.0 mi SE 11.5 mph - N/A   Mostly Cloudy
8:55 AM 75.2 °F - 71.6 °F 89% 29.94 in 10.0 mi SE 16.1 mph 20.7 mph N/A   Scattered Clouds
9:15 AM 77.0 °F - 69.8 °F 78% 29.94 in 10.0 mi SE 16.1 mph 21.9 mph N/A   Scattered Clouds
9:35 AM 78.8 °F - 69.8 °F 74% 29.94 in 10.0 mi SE 18.4 mph 24.2 mph N/A   Scattered Clouds
9:55 AM 78.8 °F - 69.8 °F 74% 29.94 in 10.0 mi SSE 16.1 mph 21.9 mph N/A   Partly Cloudy
10:15 AM 78.8 °F - 66.2 °F 65% 29.94 in 10.0 mi SSE 16.1 mph 20.7 mph N/A   Mostly Cloudy
10:35 AM 80.6 °F 83.2 °F 68.0 °F 65% 29.93 in 10.0 mi SE 20.7 mph 24.2 mph N/A   Mostly Cloudy
10:55 AM 82.4 °F 85.4 °F 68.0 °F 62% 29.94 in 10.0 mi SE 17.3 mph 25.3 mph N/A   Mostly Cloudy
11:15 AM 82.4 °F 84.6 °F 66.2 °F 58% 29.93 in 10.0 mi SSE 20.7 mph 26.5 mph N/A   Mostly Cloudy
11:35 AM 82.4 °F 84.6 °F 66.2 °F 58% 29.94 in 10.0 mi South 12.7 mph 23.0 mph N/A   Mostly Cloudy
11:55 AM 82.4 °F 84.6 °F 66.2 °F 58% 29.94 in 10.0 mi South 15.0 mph 21.9 mph N/A   Mostly Cloudy
12:15 PM 84.2 °F 87.3 °F 68.0 °F 58% 29.93 in 10.0 mi SSE 15.0 mph 19.6 mph N/A   Scattered Clouds
12:35 PM 86.0 °F 88.2 °F 66.2 °F 51% 29.92 in 10.0 mi South 18.4 mph 23.0 mph N/A   Partly Cloudy
12:55 PM 86.0 °F 89.4 °F 68.0 °F 55% 29.92 in 10.0 mi South 13.8 mph 19.6 mph N/A   Mostly Cloudy
1:15 PM 86.0 °F 88.2 °F 66.2 °F 51% 29.91 in - SSE 12.7 mph - N/A   Mostly Cloudy
1:35 PM 87.8 °F 90.4 °F 66.2 °F 49% 29.90 in - SE 15.0 mph 24.2 mph N/A   Scattered Clouds
1:55 PM 87.8 °F 90.4 °F 66.2 °F 49% 29.89 in - SSE 15.0 mph 21.9 mph N/A   Scattered Clouds
2:15 PM 87.8 °F 90.4 °F 66.2 °F 49% 29.88 in - South 16.1 mph 20.7 mph N/A   Partly Cloudy
2:35 PM 87.8 °F 90.4 °F 66.2 °F 49% 29.88 in - SE 16.1 mph 23.0 mph N/A   Scattered Clouds
2:55 PM 89.6 °F 92.2 °F 66.2 °F 46% 29.87 in - SE 17.3 mph 20.7 mph N/A   Scattered Clouds
3:15 PM 80.6 °F 84.6 °F 71.6 °F 74% 29.88 in 8.0 mi SE 13.8 mph 23.0 mph N/A   Mostly Cloudy
3:35 PM 84.2 °F 88.4 °F 69.8 °F 62% 29.88 in 10.0 mi SSE 9.2 mph - N/A   Mostly Cloudy
3:55 PM 87.8 °F 90.4 °F 66.2 °F 49% 29.86 in 10.0 mi SSE 13.8 mph 18.4 mph N/A   Scattered Clouds
4:15 PM 87.8 °F 90.4 °F 66.2 °F 49% 29.85 in 10.0 mi SE 16.1 mph 24.2 mph N/A   Partly Cloudy
4:35 PM 87.8 °F 89.4 °F 64.4 °F 46% 29.84 in 10.0 mi SE 15.0 mph 25.3 mph N/A   Scattered Clouds
4:55 PM 87.8 °F 90.4 °F 66.2 °F 49% 29.84 in 10.0 mi SE 17.3 mph 25.3 mph N/A   Partly Cloudy
5:15 PM 87.8 °F 90.4 °F 66.2 °F 49% 29.84 in 10.0 mi SSE 12.7 mph 24.2 mph N/A   Partly Cloudy
5:35 PM 87.8 °F 89.4 °F 64.4 °F 46% 29.84 in 10.0 mi SE 17.3 mph 25.3 mph N/A   Partly Cloudy
5:55 PM 87.8 °F 89.4 °F 64.4 °F 46% 29.84 in 10.0 mi SE 16.1 mph - N/A   Partly Cloudy
6:15 PM 87.8 °F 91.4 °F 68.0 °F 52% 29.84 in 10.0 mi SE 16.1 mph 25.3 mph N/A   Scattered Clouds
6:35 PM 86.0 °F 88.2 °F 66.2 °F 51% 29.83 in 10.0 mi SE 15.0 mph - N/A   Partly Cloudy
6:55 PM 84.2 °F 86.6 °F 66.2 °F 55% 29.83 in 10.0 mi SE 17.3 mph 23.0 mph N/A   Partly Cloudy
7:15 PM 82.4 °F 86.3 °F 69.8 °F 66% 29.84 in 10.0 mi SE 16.1 mph 20.7 mph N/A   Partly Cloudy
7:35 PM 82.4 °F 86.3 °F 69.8 °F 66% 29.84 in 10.0 mi SE 18.4 mph 24.2 mph N/A   Scattered Clouds
7:55 PM 80.6 °F 83.9 °F 69.8 °F 70% 29.85 in 10.0 mi SE 15.0 mph 19.6 mph N/A   Scattered Clouds
8:15 PM 80.6 °F 83.9 °F 69.8 °F 70% 29.85 in 10.0 mi SE 16.1 mph 20.7 mph N/A   Scattered Clouds
8:35 PM 78.8 °F - 69.8 °F 74% 29.86 in 10.0 mi SE 17.3 mph 23.0 mph N/A   Partly Cloudy
8:55 PM 78.8 °F - 69.8 °F 74% 29.87 in 10.0 mi SE 11.5 mph 17.3 mph N/A   Partly Cloudy
9:15 PM 78.8 °F - 69.8 °F 74% 29.88 in 10.0 mi SE 15.0 mph 20.7 mph N/A   Scattered Clouds
9:35 PM 78.8 °F - 68.0 °F 69% 29.88 in 10.0 mi SSE 16.1 mph 24.2 mph N/A   Partly Cloudy
9:55 PM 77.0 °F - 69.8 °F 78% 29.89 in 10.0 mi SE 11.5 mph 16.1 mph N/A   Partly Cloudy
10:15 PM 77.0 °F - 69.8 °F 78% 29.89 in 10.0 mi SE 12.7 mph 20.7 mph N/A   Partly Cloudy
10:35 PM 77.0 °F - 69.8 °F 78% 29.89 in 10.0 mi SE 15.0 mph 19.6 mph N/A   Clear
10:55 PM 75.2 °F - 69.8 °F 83% 29.91 in 10.0 mi SE 11.5 mph - N/A   Scattered Clouds
11:15 PM 75.2 °F - 69.8 °F 83% 29.91 in 10.0 mi SE 13.8 mph - N/A   Mostly Cloudy
11:35 PM 75.2 °F - 69.8 °F 83% 29.92 in 10.0 mi SE 6.9 mph - N/A   Mostly Cloudy
11:55 PM 75.2 °F - 69.8 °F 83% 29.92 in 10.0 mi SSE 10.4 mph - N/A   Overcast